Time,TemperatureF,DewpointF,PressureIn,WindDirection,WindDirectionDegrees,WindSpeedMPH,WindSpeedGustMPH,Humidity,HourlyPrecipIn,Conditions,Clouds,dailyrainin,SoftwareType,DateUTC
2013-02-20 00:00:00,-4.8,-12.1,30.35,NW,319,6.0,7.0,70,0.00,,,0.00,VWS V15.00,2013-02-20 06:00:00,
2013-02-20 00:03:00,-4.6,-11.9,30.35,NW,319,6.0,7.0,70,0.00,,BKN120,0.00,VWS V14.01,2013-02-20 06:03:00,
2013-02-20 00:08:00,-4.3,-11.6,30.35,NW,319,6.0,7.0,70,0.00,,BKN120,0.00,VWS V14.01,2013-02-20 06:08:00,
2013-02-20 00:13:00,-4.1,-11.4,30.35,NW,319,6.0,8.0,70,0.00,,BKN120,0.00,VWS V14.01,2013-02-20 06:13:00,
2013-02-20 00:15:00,-3.9,-11.2,30.35,NW,319,4.0,8.0,70,0.00,,,0.00,VWS V15.00,2013-02-20 06:15:00,
2013-02-20 00:18:00,-3.9,-11.5,30.35,NW,319,7.0,7.0,69,0.00,,BKN120,0.00,VWS V14.01,2013-02-20 06:18:00,
2013-02-20 00:23:00,-3.9,-11.5,30.35,NW,320,6.0,8.0,69,0.00,,BKN120,0.00,VWS V14.01,2013-02-20 06:23:00,
2013-02-20 00:28:00,-4.3,-11.9,30.35,NW,324,8.0,9.0,69,0.00,,BKN120,0.00,VWS V14.01,2013-02-20 06:28:00,
2013-02-20 00:30:00,-4.6,-12.2,30.35,NW,325,5.0,9.0,69,0.00,,,0.00,VWS V15.00,2013-02-20 06:30:00,
2013-02-20 00:33:00,-4.8,-12.4,30.35,NW,325,6.0,8.0,69,0.00,,BKN110,0.00,VWS V14.01,2013-02-20 06:33:00,
2013-02-20 00:38:00,-5.0,-12.6,30.35,NW,326,9.0,9.0,69,0.00,,BKN110,0.00,VWS V14.01,2013-02-20 06:38:00,
2013-02-20 00:43:00,-5.4,-12.9,30.35,NW,326,6.0,9.0,69,0.00,,BKN110,0.00,VWS V14.01,2013-02-20 06:43:00,
2013-02-20 00:45:00,-5.6,-12.8,30.37,NW,325,5.0,9.0,70,0.00,,,0.00,VWS V15.00,2013-02-20 06:45:00,
2013-02-20 00:49:00,-5.6,-12.8,30.37,NW,319,9.0,9.0,70,0.00,,BKN110,0.00,VWS V14.01,2013-02-20 06:49:00,
2013-02-20 00:54:00,-5.4,-12.4,30.37,NW,312,6.0,9.0,71,0.00,,BKN110,0.00,VWS V14.01,2013-02-20 06:54:00,
2013-02-20 00:59:00,-5.4,-12.4,30.37,NW,306,9.0,9.0,71,0.00,,BKN110,0.00,VWS V14.01,2013-02-20 06:59:00,
2013-02-20 01:00:00,-5.2,-12.2,30.37,NW,307,7.0,9.0,71,0.00,,,0.00,VWS V15.00,2013-02-20 07:00:00,
2013-02-20 01:04:00,-5.0,-12.0,30.37,NW,306,6.0,9.0,71,0.00,,BKN110,0.00,VWS V14.01,2013-02-20 07:04:00,
2013-02-20 01:09:00,-5.0,-12.0,30.37,NW,305,7.0,9.0,71,0.00,,BKN110,0.00,VWS V14.01,2013-02-20 07:09:00,
2013-02-20 01:14:00,-5.2,-12.2,30.37,WNW,298,9.0,10.0,71,0.00,,BKN110,0.00,VWS V14.01,2013-02-20 07:14:00,
2013-02-20 01:15:00,-5.2,-12.2,30.38,WNW,293,7.0,10.0,71,0.00,,,0.00,VWS V15.00,2013-02-20 07:15:00,
2013-02-20 01:19:00,-5.0,-12.0,30.38,WNW,293,7.0,7.0,71,0.00,,BKN110,0.00,VWS V14.01,2013-02-20 07:19:00,
2013-02-20 01:24:00,-5.0,-12.0,30.38,WNW,293,8.0,10.0,71,0.00,,BKN110,0.00,VWS V14.01,2013-02-20 07:24:00,
2013-02-20 01:29:00,-5.2,-12.2,30.38,WNW,295,7.0,10.0,71,0.00,,BKN110,0.00,VWS V14.01,2013-02-20 07:29:00,
2013-02-20 01:30:00,-5.0,-12.0,30.38,WNW,296,7.0,10.0,71,0.00,,,0.00,VWS V15.00,2013-02-20 07:30:00,
2013-02-20 01:34:00,-5.0,-12.0,30.38,WNW,299,8.0,8.0,71,0.00,,BKN120,0.00,VWS V14.01,2013-02-20 07:34:00,
2013-02-20 01:39:00,-5.0,-12.0,30.38,NW,315,6.0,9.0,71,0.00,,BKN120,0.00,VWS V14.01,2013-02-20 07:39:00,
2013-02-20 01:44:00,-5.4,-12.6,30.38,NW,316,5.0,9.0,70,0.00,,BKN120,0.00,VWS V14.01,2013-02-20 07:44:00,
2013-02-20 01:45:00,-5.6,-12.8,30.39,NW,315,6.0,9.0,70,0.00,,,0.00,VWS V15.00,2013-02-20 07:45:00,
2013-02-20 01:49:00,-5.9,-12.9,30.39,NW,307,6.0,9.0,71,0.00,,BKN120,0.00,VWS V14.01,2013-02-20 07:49:00,
2013-02-20 01:54:00,-6.1,-13.0,30.39,WNW,297,6.0,10.0,71,0.00,,BKN120,0.00,VWS V14.01,2013-02-20 07:54:00,
2013-02-20 01:59:00,-6.1,-12.8,30.39,WNW,296,8.0,10.0,72,0.00,,BKN120,0.00,VWS V14.01,2013-02-20 07:59:00,
2013-02-20 02:00:00,-5.9,-12.6,30.40,WNW,296,6.0,10.0,72,0.00,,,0.00,VWS V15.00,2013-02-20 08:00:00,
2013-02-20 02:05:00,-5.9,-12.6,30.40,WNW,296,4.0,9.0,72,0.00,,BKN120,0.00,VWS V14.01,2013-02-20 08:05:00,
2013-02-20 02:10:00,-5.9,-12.6,30.40,WNW,296,5.0,9.0,72,0.00,,BKN120,0.00,VWS V14.01,2013-02-20 08:10:00,
2013-02-20 02:15:00,-6.1,-12.8,30.40,WNW,296,7.0,9.0,72,0.00,,BKN120,0.00,VWS V14.01,2013-02-20 08:15:00,
2013-02-20 02:20:00,-6.1,-12.5,30.40,WNW,296,6.0,7.0,73,0.00,,BKN120,0.00,VWS V14.01,2013-02-20 08:20:00,
2013-02-20 02:25:00,-6.1,-12.5,30.40,WNW,296,5.0,8.0,73,0.00,,BKN120,0.00,VWS V14.01,2013-02-20 08:25:00,
2013-02-20 02:30:00,-5.9,-12.3,30.40,WNW,296,6.0,8.0,73,0.00,,BKN120,0.00,VWS V14.01,2013-02-20 08:30:00,
2013-02-20 02:35:00,-5.6,-12.0,30.41,WNW,296,7.0,7.0,73,0.00,,SCT120,0.00,VWS V14.01,2013-02-20 08:35:00,
2013-02-20 02:40:00,-5.6,-12.0,30.41,WNW,296,7.0,9.0,73,0.00,,SCT120,0.00,VWS V14.01,2013-02-20 08:40:00,
2013-02-20 02:45:00,-5.4,-11.8,30.41,WNW,298,7.0,9.0,73,0.00,,SCT120,0.00,VWS V14.01,2013-02-20 08:45:00,
2013-02-20 02:51:00,-5.4,-12.1,30.40,WNW,300,7.0,7.0,72,0.00,,SCT120,0.00,VWS V14.01,2013-02-20 08:51:00,
2013-02-20 02:56:00,-5.9,-12.6,30.40,WNW,301,6.0,7.0,72,0.00,,SCT120,0.00,VWS V14.01,2013-02-20 08:56:00,
2013-02-20 03:00:00,-5.9,-12.6,30.41,WNW,303,5.0,7.0,72,0.00,,,0.00,VWS V15.00,2013-02-20 09:00:00,
2013-02-20 03:01:00,-5.9,-12.6,30.40,WNW,303,5.0,7.0,72,0.00,,SCT120,0.00,VWS V14.01,2013-02-20 09:01:00,
2013-02-20 03:06:00,-5.9,-12.6,30.41,WNW,303,6.0,6.0,72,0.00,,SCT120,0.00,VWS V14.01,2013-02-20 09:06:00,
2013-02-20 03:11:00,-6.3,-13.0,30.41,WNW,303,6.0,7.0,72,0.00,,SCT120,0.00,VWS V14.01,2013-02-20 09:11:00,
2013-02-20 03:15:00,-6.3,-12.7,30.41,WNW,303,3.0,7.0,73,0.00,,,0.00,VWS V15.00,2013-02-20 09:15:00,
2013-02-20 03:16:00,-6.3,-12.7,30.41,WNW,303,5.0,7.0,73,0.00,,SCT120,0.00,VWS V14.01,2013-02-20 09:16:00,
2013-02-20 03:21:00,-6.3,-12.7,30.41,NW,304,5.0,6.0,73,0.00,,SCT120,0.00,VWS V14.01,2013-02-20 09:21:00,
2013-02-20 03:26:00,-6.1,-12.5,30.41,NW,307,6.0,7.0,73,0.00,,SCT120,0.00,VWS V14.01,2013-02-20 09:26:00,
2013-02-20 03:30:00,-6.3,-12.7,30.41,NW,310,5.0,7.0,73,0.00,,,0.00,VWS V15.00,2013-02-20 09:30:00,
2013-02-20 03:31:00,-6.3,-12.7,30.41,NW,310,6.0,7.0,73,0.00,,SCT120,0.00,VWS V14.01,2013-02-20 09:31:00,
2013-02-20 03:36:00,-6.3,-12.7,30.41,NW,315,4.0,7.0,73,0.00,,SCT120,0.00,VWS V14.01,2013-02-20 09:36:00,
2013-02-20 03:41:00,-6.3,-12.7,30.41,NW,319,4.0,7.0,73,0.00,,SCT120,0.00,VWS V14.01,2013-02-20 09:41:00,
2013-02-20 03:45:00,-6.5,-12.9,30.41,NW,319,4.0,7.0,73,0.00,,,0.00,VWS V15.00,2013-02-20 09:45:00,
2013-02-20 03:46:00,-6.5,-12.9,30.41,NW,319,4.0,7.0,73,0.00,,SCT120,0.00,VWS V14.01,2013-02-20 09:46:00,
2013-02-20 03:51:00,-7.0,-13.4,30.41,NW,319,5.0,6.0,73,0.00,,SCT120,0.00,VWS V14.01,2013-02-20 09:51:00,
2013-02-20 03:56:00,-7.2,-13.6,30.41,NW,319,6.0,6.0,73,0.00,,SCT120,0.00,VWS V14.01,2013-02-20 09:56:00,
2013-02-20 04:00:00,-7.2,-13.3,30.42,NW,319,5.0,7.0,74,0.00,,,0.00,VWS V15.00,2013-02-20 10:00:00,
2013-02-20 04:01:00,-7.2,-13.3,30.42,NW,319,6.0,7.0,74,0.00,,SCT120,0.00,VWS V14.01,2013-02-20 10:01:00,
2013-02-20 04:06:00,-7.2,-13.3,30.42,NW,319,6.0,7.0,74,0.00,,BKN120,0.00,VWS V14.01,2013-02-20 10:06:00,
2013-02-20 04:11:00,-7.2,-13.3,30.42,NW,319,6.0,7.0,74,0.00,,BKN120,0.00,VWS V14.01,2013-02-20 10:11:00,
2013-02-20 04:15:00,-7.5,-13.8,30.42,NW,319,6.0,8.0,73,0.00,,,0.00,VWS V15.00,2013-02-20 10:15:00,
2013-02-20 04:16:00,-7.5,-13.8,30.42,NW,319,8.0,8.0,73,0.00,,BKN120,0.00,VWS V14.01,2013-02-20 10:16:00,
2013-02-20 04:21:00,-7.7,-13.8,30.42,NW,319,7.0,8.0,74,0.00,,BKN120,0.00,VWS V14.01,2013-02-20 10:21:00,
2013-02-20 04:26:00,-7.5,-13.6,30.42,NW,319,6.0,8.0,74,0.00,,BKN120,0.00,VWS V14.01,2013-02-20 10:26:00,
2013-02-20 04:30:00,-7.5,-13.6,30.43,NW,319,6.0,8.0,74,0.00,,,0.00,VWS V15.00,2013-02-20 10:30:00,
2013-02-20 04:31:00,-7.5,-13.6,30.43,NW,319,6.0,8.0,74,0.00,,BKN120,0.00,VWS V14.01,2013-02-20 10:31:00,
2013-02-20 04:36:00,-7.7,-13.8,30.43,NW,319,6.0,7.0,74,0.00,,BKN120,0.00,VWS V14.01,2013-02-20 10:36:00,
2013-02-20 04:41:00,-7.9,-14.0,30.43,NW,319,6.0,7.0,74,0.00,,BKN120,0.00,VWS V14.01,2013-02-20 10:41:00,
2013-02-20 04:45:00,-7.7,-13.8,30.43,NW,319,6.0,7.0,74,0.00,,,0.00,VWS V15.00,2013-02-20 10:45:00,
2013-02-20 04:46:00,-7.7,-13.8,30.43,NW,319,7.0,7.0,74,0.00,,BKN120,0.00,VWS V14.01,2013-02-20 10:46:00,
2013-02-20 04:51:00,-7.7,-13.8,30.43,NW,319,5.0,7.0,74,0.00,,BKN120,0.00,VWS V14.01,2013-02-20 10:51:00,
2013-02-20 04:56:00,-7.5,-13.6,30.43,NW,320,7.0,7.0,74,0.00,,BKN120,0.00,VWS V14.01,2013-02-20 10:56:00,
2013-02-20 05:00:00,-7.5,-13.6,30.42,NNW,329,9.0,9.0,74,0.00,,,0.00,VWS V15.00,2013-02-20 11:00:00,
2013-02-20 05:01:00,-7.5,-13.6,30.42,NNW,328,7.0,9.0,74,0.00,,BKN120,0.00,VWS V14.01,2013-02-20 11:01:00,
2013-02-20 05:06:00,-7.5,-13.6,30.42,NNW,333,5.0,10.0,74,0.00,,BKN120,0.00,VWS V14.01,2013-02-20 11:06:00,
2013-02-20 05:11:00,-7.7,-14.0,30.42,NNW,333,6.0,10.0,73,0.00,,BKN120,0.00,VWS V14.01,2013-02-20 11:11:00,
2013-02-20 05:15:00,-8.2,-14.5,30.44,NNW,333,6.0,10.0,73,0.00,,,0.00,VWS V15.00,2013-02-20 11:15:00,
2013-02-20 05:16:00,-8.2,-14.5,30.44,NNW,333,6.0,10.0,73,0.00,,BKN120,0.00,VWS V14.01,2013-02-20 11:16:00,
2013-02-20 05:21:00,-8.2,-14.2,30.44,NNW,333,6.0,7.0,74,0.00,,BKN120,0.00,VWS V14.01,2013-02-20 11:21:00,
2013-02-20 05:26:00,-8.2,-14.2,30.44,NNW,333,5.0,9.0,74,0.00,,BKN120,0.00,VWS V14.01,2013-02-20 11:26:00,
2013-02-20 05:30:00,-8.2,-14.2,30.44,NNW,331,7.0,9.0,74,0.00,,,0.00,VWS V15.00,2013-02-20 11:30:00,
2013-02-20 05:31:00,-8.2,-14.2,30.44,NNW,331,5.0,9.0,74,0.00,,BKN120,0.00,VWS V14.01,2013-02-20 11:31:00,
2013-02-20 05:36:00,-8.2,-14.2,30.44,NNW,331,6.0,9.0,74,0.00,,BKN120,0.00,VWS V14.01,2013-02-20 11:36:00,
2013-02-20 05:42:00,-8.2,-14.2,30.44,NNW,331,6.0,10.0,74,0.00,,SCT120,0.00,VWS V14.01,2013-02-20 11:42:00,
2013-02-20 05:45:00,-8.2,-14.2,30.44,NNW,333,7.0,10.0,74,0.00,,,0.00,VWS V15.00,2013-02-20 11:45:00,
2013-02-20 05:47:00,-8.2,-14.2,30.44,NNW,333,7.0,10.0,74,0.00,,SCT120,0.00,VWS V14.01,2013-02-20 11:47:00,
2013-02-20 05:52:00,-8.2,-14.2,30.44,NNW,336,6.0,9.0,74,0.00,,SCT120,0.00,VWS V14.01,2013-02-20 11:52:00,
2013-02-20 05:57:00,-7.9,-14.0,30.44,NNW,339,5.0,9.0,74,0.00,,SCT120,0.00,VWS V14.01,2013-02-20 11:57:00,
2013-02-20 06:00:00,-8.2,-14.2,30.44,NNW,341,6.0,9.0,74,0.00,,,0.00,VWS V15.00,2013-02-20 12:00:00,
2013-02-20 06:02:00,-8.2,-14.2,30.44,NNW,341,5.0,6.0,74,0.00,,SCT120,0.00,VWS V14.01,2013-02-20 12:02:00,
2013-02-20 06:07:00,-8.4,-14.4,30.44,NNW,341,5.0,6.0,74,0.00,,SCT120,0.00,VWS V14.01,2013-02-20 12:07:00,
2013-02-20 06:12:00,-8.2,-14.2,30.44,NNW,341,5.0,6.0,74,0.00,,BKN120,0.00,VWS V14.01,2013-02-20 12:12:00,
2013-02-20 06:15:00,-8.2,-14.2,30.45,NNW,341,3.0,6.0,74,0.00,,,0.00,VWS V15.00,2013-02-20 12:15:00,
2013-02-20 06:17:00,-8.2,-14.2,30.45,NNW,341,5.0,5.0,74,0.00,,BKN120,0.00,VWS V14.01,2013-02-20 12:17:00,
2013-02-20 06:22:00,-7.9,-14.0,30.45,NNW,341,5.0,5.0,74,0.00,,BKN120,0.00,VWS V14.01,2013-02-20 12:22:00,
2013-02-20 06:27:00,-8.2,-14.2,30.45,NNW,341,4.0,6.0,74,0.00,,BKN120,0.00,VWS V14.01,2013-02-20 12:27:00,
2013-02-20 06:30:00,-8.2,-14.2,30.45,NNW,341,4.0,6.0,74,0.00,,,0.00,VWS V15.00,2013-02-20 12:30:00,
2013-02-20 06:32:00,-8.2,-14.2,30.45,NNW,341,3.0,4.0,74,0.00,,BKN120,0.00,VWS V14.01,2013-02-20 12:32:00,
2013-02-20 06:37:00,-8.2,-14.2,30.45,NNW,341,3.0,5.0,74,0.00,,BKN120,0.00,VWS V14.01,2013-02-20 12:37:00,
2013-02-20 06:42:00,-8.6,-14.9,30.45,NNW,341,4.0,5.0,73,0.00,,BKN120,0.00,VWS V14.01,2013-02-20 12:42:00,
2013-02-20 06:45:00,-8.9,-14.9,30.45,NNW,341,4.0,5.0,74,0.00,,,0.00,VWS V15.00,2013-02-20 12:45:00,
2013-02-20 06:47:00,-8.9,-14.9,30.45,NNW,341,4.0,4.0,74,0.00,,BKN120,0.00,VWS V14.01,2013-02-20 12:47:00,
2013-02-20 06:52:00,-9.1,-15.4,30.45,NNW,341,4.0,4.0,73,0.00,,BKN120,0.00,VWS V14.01,2013-02-20 12:52:00,
2013-02-20 06:57:00,-9.3,-15.3,30.45,NNW,341,4.0,5.0,74,0.00,,BKN120,0.00,VWS V14.01,2013-02-20 12:57:00,
2013-02-20 07:00:00,-9.1,-15.1,30.46,NNW,341,3.0,5.0,74,0.00,,,0.00,VWS V15.00,2013-02-20 13:00:00,
2013-02-20 07:02:00,-9.1,-15.1,30.46,NNW,341,4.0,5.0,74,0.00,,OVC120,0.00,VWS V14.01,2013-02-20 13:02:00,
2013-02-20 07:07:00,-9.3,-15.3,30.46,NNW,341,3.0,5.0,74,0.00,,OVC120,0.00,VWS V14.01,2013-02-20 13:07:00,
2013-02-20 07:12:00,-9.6,-15.6,30.46,NNW,341,3.0,5.0,74,0.00,,OVC120,0.00,VWS V14.01,2013-02-20 13:12:00,
2013-02-20 07:15:00,-9.3,-15.3,30.47,NNW,341,4.0,5.0,74,0.00,,,0.00,VWS V15.00,2013-02-20 13:15:00,
2013-02-20 07:17:00,-9.3,-15.3,30.47,NNW,341,4.0,4.0,74,0.00,,OVC120,0.00,VWS V14.01,2013-02-20 13:17:00,
2013-02-20 07:22:00,-9.6,-15.6,30.47,NNW,341,4.0,5.0,74,0.00,,OVC120,0.00,VWS V14.01,2013-02-20 13:22:00,
2013-02-20 07:27:00,-9.3,-15.3,30.47,NNW,341,5.0,6.0,74,0.00,,OVC120,0.00,VWS V14.01,2013-02-20 13:27:00,
2013-02-20 07:30:00,-9.3,-15.6,30.48,NNW,341,4.0,6.0,73,0.00,,,0.00,VWS V15.00,2013-02-20 13:30:00,
2013-02-20 07:32:00,-9.3,-15.6,30.48,NNW,341,5.0,5.0,73,0.00,,SCT110,0.00,VWS V14.01,2013-02-20 13:32:00,
2013-02-20 07:37:00,-9.6,-15.9,30.48,NNW,342,5.0,6.0,73,0.00,,SCT110,0.00,VWS V14.01,2013-02-20 13:37:00,
2013-02-20 07:42:00,-9.1,-15.1,30.48,NNW,343,5.0,6.0,74,0.00,,SCT110,0.00,VWS V14.01,2013-02-20 13:42:00,
2013-02-20 07:45:00,-9.1,-15.4,30.48,NNW,345,5.0,6.0,73,0.00,,,0.00,VWS V15.00,2013-02-20 13:45:00,
2013-02-20 07:47:00,-9.1,-15.4,30.48,NNW,345,4.0,5.0,73,0.00,,SCT110,0.00,VWS V14.01,2013-02-20 13:47:00,
2013-02-20 07:52:00,-8.9,-15.2,30.48,NNW,346,4.0,6.0,73,0.00,,SCT110,0.00,VWS V14.01,2013-02-20 13:52:00,
2013-02-20 07:57:00,-8.6,-14.6,30.48,NNW,348,4.0,6.0,74,0.00,,SCT110,0.00,VWS V14.01,2013-02-20 13:57:00,
2013-02-20 08:00:00,-8.6,-14.6,30.48,NNW,348,5.0,6.0,74,0.00,,,0.00,VWS V15.00,2013-02-20 14:00:00,
2013-02-20 08:02:00,-8.4,-14.4,30.48,North,349,2.0,5.0,74,0.00,,SCT110,0.00,VWS V14.01,2013-02-20 14:02:00,
2013-02-20 08:07:00,-7.9,-14.0,30.48,North,351,4.0,6.0,74,0.00,,SCT110,0.00,VWS V14.01,2013-02-20 14:07:00,
2013-02-20 08:12:00,-7.5,-13.6,30.48,North,354,2.0,6.0,74,0.00,,SCT110,0.00,VWS V14.01,2013-02-20 14:12:00,
2013-02-20 08:15:00,-7.0,-13.1,30.48,North,356,3.0,6.0,74,0.00,,,0.00,VWS V15.00,2013-02-20 14:15:00,
2013-02-20 08:18:00,-7.0,-13.1,30.48,North,356,3.0,4.0,74,0.00,,SCT110,0.00,VWS V14.01,2013-02-20 14:18:00,
2013-02-20 08:23:00,-6.3,-12.4,30.48,North,357,2.0,5.0,74,0.00,,SCT110,0.00,VWS V14.01,2013-02-20 14:23:00,
2013-02-20 08:28:00,-5.6,-11.7,30.48,North,357,0.0,5.0,74,0.00,,SCT110,0.00,VWS V14.01,2013-02-20 14:28:00,
2013-02-20 08:30:00,-5.2,-11.3,30.48,North,357,0.0,5.0,74,0.00,,,0.00,VWS V15.00,2013-02-20 14:30:00,
2013-02-20 08:33:00,-5.0,-11.1,30.48,North,357,0.0,3.0,74,0.00,,CLR,0.00,VWS V14.01,2013-02-20 14:33:00,
2013-02-20 08:38:00,-4.3,-10.7,30.48,North,357,0.0,4.0,73,0.00,,CLR,0.00,VWS V14.01,2013-02-20 14:38:00,
2013-02-20 08:43:00,-3.5,-10.0,30.48,North,357,2.0,4.0,73,0.00,,CLR,0.00,VWS V14.01,2013-02-20 14:43:00,
2013-02-20 08:45:00,-3.1,-9.9,30.47,North,357,1.0,4.0,72,0.00,,,0.00,VWS V15.00,2013-02-20 14:45:00,
2013-02-20 08:48:00,-3.1,-9.9,30.47,North,357,4.0,4.0,72,0.00,,CLR,0.00,VWS V14.01,2013-02-20 14:48:00,
2013-02-20 08:53:00,-2.4,-9.2,30.47,North,358,5.0,6.0,72,0.00,,CLR,0.00,VWS V14.01,2013-02-20 14:53:00,
2013-02-20 08:58:00,-1.8,-8.9,30.47,North,359,3.0,7.0,71,0.00,,CLR,0.00,VWS V14.01,2013-02-20 14:58:00,
2013-02-20 09:00:00,-1.4,-8.5,30.47,North,4,2.0,7.0,71,0.00,,,0.00,VWS V15.00,2013-02-20 15:00:00,
2013-02-20 09:03:00,-1.4,-8.5,30.47,North,4,5.0,5.0,71,0.00,,CLR,0.00,VWS V14.01,2013-02-20 15:03:00,
2013-02-20 09:08:00,-0.8,-7.9,30.47,North,5,2.0,6.0,71,0.00,,CLR,0.00,VWS V14.01,2013-02-20 15:08:00,
2013-02-20 09:13:00,-0.4,-7.8,30.47,North,7,1.0,6.0,70,0.00,,CLR,0.00,VWS V14.01,2013-02-20 15:13:00,
2013-02-20 09:15:00,-0.4,-7.8,30.47,North,8,4.0,6.0,70,0.00,,,0.00,VWS V15.00,2013-02-20 15:15:00,
2013-02-20 09:18:00,-0.2,-7.6,30.47,North,8,0.0,4.0,70,0.00,,CLR,0.00,VWS V14.01,2013-02-20 15:18:00,
2013-02-20 09:23:00,0.1,-7.3,30.47,North,7,5.0,6.0,70,0.00,,CLR,0.00,VWS V14.01,2013-02-20 15:23:00,
2013-02-20 09:28:00,0.3,-7.4,30.47,North,10,4.0,6.0,69,0.00,,CLR,0.00,VWS V14.01,2013-02-20 15:28:00,
2013-02-20 09:30:00,0.5,-7.3,30.47,NNE,14,4.0,6.0,69,0.00,,,0.00,VWS V15.00,2013-02-20 15:30:00,
2013-02-20 09:33:00,0.5,-7.3,30.47,NNE,14,0.0,4.0,69,0.00,,CLR,0.00,VWS V14.01,2013-02-20 15:33:00,
2013-02-20 09:38:00,1.3,-6.5,30.47,NNE,14,4.0,5.0,69,0.00,,CLR,0.00,VWS V14.01,2013-02-20 15:38:00,
2013-02-20 09:43:00,1.7,-6.1,30.47,NNE,32,4.0,6.0,69,0.00,,CLR,0.00,VWS V14.01,2013-02-20 15:43:00,
2013-02-20 09:45:00,1.8,-5.7,30.47,NNE,21,4.0,6.0,70,0.00,,,0.00,VWS V15.00,2013-02-20 15:45:00,
2013-02-20 09:48:00,2.0,-5.5,30.47,NNE,28,7.0,10.0,70,0.00,,CLR,0.00,VWS V14.01,2013-02-20 15:48:00,
2013-02-20 09:53:00,2.2,-5.3,30.47,NNE,23,2.0,10.0,70,0.00,,CLR,0.00,VWS V14.01,2013-02-20 15:53:00,
2013-02-20 09:58:00,2.6,-4.9,30.47,NNE,30,6.0,11.0,70,0.00,,CLR,0.00,VWS V14.01,2013-02-20 15:58:00,
2013-02-20 10:00:00,2.6,-4.9,30.47,NNE,28,7.0,11.0,70,0.00,,,0.00,VWS V15.00,2013-02-20 16:00:00,
2013-02-20 10:03:00,2.8,-4.8,30.47,NE,36,5.0,7.0,70,0.00,,CLR,0.00,VWS V14.01,2013-02-20 16:03:00,
2013-02-20 10:08:00,2.8,-4.8,30.47,NE,38,2.0,10.0,70,0.00,,CLR,0.00,VWS V14.01,2013-02-20 16:08:00,
2013-02-20 10:13:00,3.0,-4.6,30.47,NNE,26,5.0,10.0,70,0.00,,CLR,0.00,VWS V14.01,2013-02-20 16:13:00,
2013-02-20 10:15:00,3.0,-4.6,30.47,NNE,33,2.0,10.0,70,0.00,,,0.00,VWS V15.00,2013-02-20 16:15:00,
2013-02-20 10:18:00,3.2,-4.4,30.47,NE,36,5.0,5.0,70,0.00,,CLR,0.00,VWS V14.01,2013-02-20 16:18:00,
2013-02-20 10:23:00,3.5,-4.4,30.47,NNE,23,5.0,7.0,69,0.00,,CLR,0.00,VWS V14.01,2013-02-20 16:23:00,
2013-02-20 10:28:00,3.9,-4.0,30.47,NNE,31,2.0,7.0,69,0.00,,CLR,0.00,VWS V14.01,2013-02-20 16:28:00,
2013-02-20 10:30:00,4.1,-4.1,30.47,NE,35,0.0,7.0,68,0.00,,,0.00,VWS V15.00,2013-02-20 16:30:00,
2013-02-20 10:33:00,4.3,-3.9,30.47,NE,35,0.0,0.0,68,0.00,,CLR,0.00,VWS V14.01,2013-02-20 16:33:00,
2013-02-20 10:38:00,4.7,-3.5,30.47,NNE,26,1.0,4.0,68,0.00,,CLR,0.00,VWS V14.01,2013-02-20 16:38:00,
2013-02-20 10:43:00,5.0,-3.9,30.47,NE,38,5.0,7.0,66,0.00,,CLR,0.00,VWS V14.01,2013-02-20 16:43:00,
2013-02-20 10:45:00,5.0,-3.9,30.46,NE,38,5.0,7.0,66,0.00,,,0.00,VWS V15.00,2013-02-20 16:45:00,
2013-02-20 10:48:00,4.8,-4.1,30.46,NNE,29,4.0,5.0,66,0.00,,CLR,0.00,VWS V14.01,2013-02-20 16:48:00,
2013-02-20 10:54:00,5.2,-4.0,30.46,NNE,20,0.0,5.0,65,0.00,,CLR,0.00,VWS V14.01,2013-02-20 16:54:00,
2013-02-20 10:59:00,5.6,-3.6,30.46,NE,35,0.0,9.0,65,0.00,,CLR,0.00,VWS V14.01,2013-02-20 16:59:00,
2013-02-20 11:00:00,5.6,-3.9,30.46,NNE,33,5.0,12.0,64,0.00,,,0.00,VWS V15.00,2013-02-20 17:00:00,
2013-02-20 11:04:00,5.8,-3.4,30.46,NNE,23,4.0,5.0,65,0.00,,CLR,0.00,VWS V14.01,2013-02-20 17:04:00,
2013-02-20 11:09:00,6.3,-3.3,30.46,NNE,15,1.0,6.0,64,0.00,,CLR,0.00,VWS V14.01,2013-02-20 17:09:00,
2013-02-20 11:14:00,6.7,-3.2,30.46,NNE,33,5.0,8.0,63,0.00,,CLR,0.00,VWS V14.01,2013-02-20 17:14:00,
2013-02-20 11:15:00,6.9,-3.3,30.46,NE,37,6.0,8.0,62,0.00,,,0.00,VWS V15.00,2013-02-20 17:15:00,
2013-02-20 11:19:00,6.9,-3.3,30.46,NE,46,0.0,8.0,62,0.00,,CLR,0.00,VWS V14.01,2013-02-20 17:19:00,
2013-02-20 11:24:00,7.4,-3.2,30.46,NE,41,1.0,8.0,61,0.00,,CLR,0.00,VWS V14.01,2013-02-20 17:24:00,
2013-02-20 11:29:00,7.7,-3.3,30.46,NE,41,0.0,8.0,60,0.00,,CLR,0.00,VWS V14.01,2013-02-20 17:29:00,
2013-02-20 11:30:00,7.9,-3.1,30.46,NE,40,0.0,8.0,60,0.00,,,0.00,VWS V15.00,2013-02-20 17:30:00,
2013-02-20 11:34:00,8.3,-2.4,30.46,NE,40,0.0,0.0,61,0.00,,CLR,0.00,VWS V14.01,2013-02-20 17:34:00,
2013-02-20 11:39:00,9.2,-2.2,30.46,NE,40,0.0,1.0,59,0.00,,CLR,0.00,VWS V14.01,2013-02-20 17:39:00,
2013-02-20 11:44:00,9.3,-2.5,30.46,NE,40,3.0,3.0,58,0.00,,CLR,0.00,VWS V14.01,2013-02-20 17:44:00,
2013-02-20 11:45:00,9.5,-2.3,30.46,NNE,33,1.0,3.0,58,0.00,,,0.00,VWS V15.00,2013-02-20 17:45:00,
2013-02-20 11:49:00,9.5,-2.3,30.46,NE,34,4.0,4.0,58,0.00,,CLR,0.00,VWS V14.01,2013-02-20 17:49:00,
2013-02-20 11:54:00,9.5,-2.3,30.46,NE,34,1.0,4.0,58,0.00,,CLR,0.00,VWS V14.01,2013-02-20 17:54:00,
2013-02-20 11:59:00,9.7,-2.5,30.46,NNE,33,1.0,4.0,57,0.00,,CLR,0.00,VWS V14.01,2013-02-20 17:59:00,
2013-02-20 12:00:00,9.7,-2.1,30.46,NNE,33,0.0,4.0,58,0.00,,,0.00,VWS V15.00,2013-02-20 18:00:00,
2013-02-20 12:04:00,9.7,-2.5,30.46,NNE,33,1.0,4.0,57,0.00,,CLR,0.00,VWS V14.01,2013-02-20 18:04:00,
2013-02-20 12:09:00,10.2,-2.0,30.46,NNE,33,1.0,4.0,57,0.00,,CLR,0.00,VWS V14.01,2013-02-20 18:09:00,
2013-02-20 12:14:00,10.5,-2.1,30.46,NNE,33,0.0,4.0,56,0.00,,CLR,0.00,VWS V14.01,2013-02-20 18:14:00,
2013-02-20 12:15:00,10.9,-1.7,30.45,NNE,33,1.0,4.0,56,0.00,,,0.00,VWS V15.00,2013-02-20 18:15:00,
2013-02-20 12:19:00,11.2,-1.8,30.45,NNE,33,0.0,3.0,55,0.00,,CLR,0.00,VWS V14.01,2013-02-20 18:19:00,
2013-02-20 12:24:00,11.4,-1.6,30.45,NNE,33,1.0,3.0,55,0.00,,CLR,0.00,VWS V14.01,2013-02-20 18:24:00,
2013-02-20 12:29:00,11.9,-1.1,30.45,NNE,33,0.0,5.0,55,0.00,,CLR,0.00,VWS V14.01,2013-02-20 18:29:00,
2013-02-20 12:30:00,12.1,-1.0,30.44,NNE,33,0.0,5.0,55,0.00,,,0.00,VWS V15.00,2013-02-20 18:30:00,
2013-02-20 12:34:00,12.3,-1.2,30.44,NNE,33,2.0,4.0,54,0.00,,CLR,0.00,VWS V14.01,2013-02-20 18:34:00,
2013-02-20 12:39:00,12.1,-1.7,30.44,NNE,33,2.0,4.0,53,0.00,,CLR,0.00,VWS V14.01,2013-02-20 18:39:00,
2013-02-20 12:44:00,12.4,-1.1,30.44,NNE,32,0.0,4.0,54,0.00,,CLR,0.00,VWS V14.01,2013-02-20 18:44:00,
2013-02-20 12:45:00,12.6,-1.3,30.44,NNE,32,1.0,4.0,53,0.00,,,0.00,VWS V15.00,2013-02-20 18:45:00,
2013-02-20 12:49:00,12.6,-0.9,30.44,NNE,32,2.0,3.0,54,0.00,,CLR,0.00,VWS V14.01,2013-02-20 18:49:00,
2013-02-20 12:54:00,12.8,-0.3,30.44,NNE,27,3.0,4.0,55,0.00,,CLR,0.00,VWS V14.01,2013-02-20 18:54:00,
2013-02-20 12:59:00,12.8,-0.3,30.44,NNE,17,3.0,5.0,55,0.00,,CLR,0.00,VWS V14.01,2013-02-20 18:59:00,
2013-02-20 13:00:00,12.9,-0.6,30.44,NNE,17,0.0,5.0,54,0.00,,,0.00,VWS V15.00,2013-02-20 19:00:00,
2013-02-20 13:04:00,12.9,-1.0,30.44,NNE,16,1.0,3.0,53,0.00,,CLR,0.00,VWS V14.01,2013-02-20 19:04:00,
2013-02-20 13:09:00,13.1,-0.4,30.44,NNE,19,4.0,5.0,54,0.00,,CLR,0.00,VWS V14.01,2013-02-20 19:09:00,
2013-02-20 13:14:00,13.3,0.6,30.44,NW,326,2.0,9.0,56,0.00,,CLR,0.00,VWS V14.01,2013-02-20 19:14:00,
2013-02-20 13:15:00,13.6,0.1,30.44,NW,326,1.0,9.0,54,0.00,,,0.00,VWS V15.00,2013-02-20 19:15:00,
2013-02-20 13:19:00,13.8,-0.2,30.44,NW,326,1.0,3.0,53,0.00,,CLR,0.00,VWS V14.01,2013-02-20 19:19:00,
2013-02-20 13:24:00,14.1,0.5,30.44,NW,326,3.0,5.0,54,0.00,,CLR,0.00,VWS V14.01,2013-02-20 19:24:00,
2013-02-20 13:29:00,14.3,0.3,30.44,NW,324,4.0,6.0,53,0.00,,CLR,0.00,VWS V14.01,2013-02-20 19:29:00,
2013-02-20 13:30:00,14.4,0.4,30.44,NW,324,2.0,6.0,53,0.00,,,0.00,VWS V15.00,2013-02-20 19:30:00,
2013-02-20 13:34:00,14.6,0.6,30.44,NW,324,2.0,4.0,53,0.00,,CLR,0.00,VWS V14.01,2013-02-20 19:34:00,
2013-02-20 13:39:00,14.6,0.2,30.44,NW,324,1.0,4.0,52,0.00,,CLR,0.00,VWS V14.01,2013-02-20 19:39:00,
2013-02-20 13:44:00,14.8,0.8,30.44,NW,324,2.0,4.0,53,0.00,,CLR,0.00,VWS V14.01,2013-02-20 19:44:00,
2013-02-20 13:45:00,14.9,0.9,30.44,NW,324,2.0,4.0,53,0.00,,,0.00,VWS V15.00,2013-02-20 19:45:00,
2013-02-20 13:50:00,14.9,0.1,30.44,NW,324,2.0,3.0,51,0.00,,CLR,0.00,VWS V14.01,2013-02-20 19:50:00,
2013-02-20 13:55:00,15.2,0.3,30.44,NW,324,1.0,3.0,51,0.00,,CLR,0.00,VWS V14.01,2013-02-20 19:55:00,
2013-02-20 14:00:00,16.2,1.7,30.44,SW,234,7.0,10.0,52,0.00,,CLR,0.00,VWS V14.01,2013-02-20 20:00:00,
2013-02-20 14:05:00,16.2,0.8,30.45,WSW,252,7.0,9.0,50,0.00,,CLR,0.00,VWS V14.01,2013-02-20 20:05:00,
2013-02-20 14:10:00,16.1,0.8,30.45,WSW,255,1.0,9.0,50,0.00,,CLR,0.00,VWS V14.01,2013-02-20 20:10:00,
2013-02-20 14:15:00,16.2,1.3,30.45,WSW,253,0.0,9.0,51,0.00,,CLR,0.00,VWS V14.01,2013-02-20 20:15:00,
2013-02-20 14:20:00,15.6,-0.2,30.45,WSW,248,7.0,7.0,49,0.00,,CLR,0.00,VWS V14.01,2013-02-20 20:20:00,
2013-02-20 14:25:00,15.2,0.8,30.45,WSW,253,1.0,7.0,52,0.00,,CLR,0.00,VWS V14.01,2013-02-20 20:25:00,
2013-02-20 14:30:00,15.2,-0.1,30.45,WSW,253,0.0,8.0,50,0.00,,CLR,0.00,VWS V14.01,2013-02-20 20:30:00,
2013-02-20 14:35:00,15.6,0.3,30.45,West,263,0.0,5.0,50,0.00,,CLR,0.00,VWS V14.01,2013-02-20 20:35:00,
2013-02-20 14:40:00,15.9,0.1,30.45,West,265,1.0,6.0,49,0.00,,CLR,0.00,VWS V14.01,2013-02-20 20:40:00,
2013-02-20 14:45:00,16.2,1.3,30.45,WNW,283,5.0,7.0,51,0.00,,CLR,0.00,VWS V14.01,2013-02-20 20:45:00,
2013-02-20 14:50:00,16.2,0.8,30.45,WNW,286,7.0,8.0,50,0.00,,CLR,0.00,VWS V14.01,2013-02-20 20:50:00,
2013-02-20 14:55:00,16.1,-0.1,30.45,West,280,0.0,8.0,48,0.00,,CLR,0.00,VWS V14.01,2013-02-20 20:55:00,
2013-02-20 15:00:00,16.4,1.5,30.45,West,265,6.0,9.0,51,0.00,,CLR,0.00,VWS V14.01,2013-02-20 21:00:00,
2013-02-20 15:05:00,16.2,0.8,30.46,West,274,1.0,7.0,50,0.00,,CLR,0.00,VWS V14.01,2013-02-20 21:05:00,
2013-02-20 15:10:00,16.4,0.6,30.46,West,275,3.0,7.0,49,0.00,,CLR,0.00,VWS V14.01,2013-02-20 21:10:00,
2013-02-20 15:15:00,16.2,0.4,30.46,West,275,1.0,7.0,49,0.00,,CLR,0.00,VWS V14.01,2013-02-20 21:15:00,
2013-02-20 15:20:00,16.5,0.7,30.46,West,275,0.0,5.0,49,0.00,,CLR,0.00,VWS V14.01,2013-02-20 21:20:00,
2013-02-20 15:25:00,16.7,0.9,30.46,NW,305,0.0,6.0,49,0.00,,CLR,0.00,VWS V14.01,2013-02-20 21:25:00,
2013-02-20 15:30:00,15.9,0.1,30.46,NW,305,1.0,6.0,49,0.00,,CLR,0.00,VWS V14.01,2013-02-20 21:30:00,
2013-02-20 15:35:00,16.4,0.6,30.46,NW,304,1.0,4.0,49,0.00,,CLR,0.00,VWS V14.01,2013-02-20 21:35:00,
2013-02-20 15:40:00,16.9,0.2,30.46,WNW,302,1.0,4.0,47,0.00,,CLR,0.00,VWS V14.01,2013-02-20 21:40:00,
2013-02-20 15:45:00,17.2,1.3,30.46,WNW,302,1.0,4.0,49,0.00,,CLR,0.00,VWS V14.01,2013-02-20 21:45:00,
2013-02-20 15:50:00,17.7,0.9,30.45,WNW,301,2.0,2.0,47,0.00,,CLR,0.00,VWS V14.01,2013-02-20 21:50:00,
2013-02-20 15:55:00,17.5,0.3,30.45,WNW,301,0.0,6.0,46,0.00,,CLR,0.00,VWS V14.01,2013-02-20 21:55:00,
2013-02-20 16:00:00,17.5,0.7,30.45,NW,311,3.0,6.0,47,0.00,,CLR,0.00,VWS V14.01,2013-02-20 22:00:00,
2013-02-20 16:05:00,17.7,0.9,30.45,NW,322,8.0,9.0,47,0.00,,CLR,0.00,VWS V14.01,2013-02-20 22:05:00,
2013-02-20 16:10:00,17.5,0.7,30.45,NNW,341,2.0,9.0,47,0.00,,CLR,0.00,VWS V14.01,2013-02-20 22:10:00,
2013-02-20 16:15:00,17.3,0.5,30.45,NNW,328,2.0,9.0,47,0.00,,CLR,0.00,VWS V14.01,2013-02-20 22:15:00,
2013-02-20 16:21:00,17.0,0.3,30.44,NNW,348,3.0,5.0,47,0.00,,CLR,0.00,VWS V14.01,2013-02-20 22:21:00,
2013-02-20 16:26:00,17.0,-0.2,30.44,NNW,345,3.0,5.0,46,0.00,,CLR,0.00,VWS V14.01,2013-02-20 22:26:00,
2013-02-20 16:30:00,16.4,0.2,30.44,North,355,1.0,5.0,48,0.00,,,0.00,VWS V15.00,2013-02-20 22:30:00,
2013-02-20 16:31:00,16.4,-0.3,30.44,North,1,3.0,5.0,47,0.00,,CLR,0.00,VWS V14.01,2013-02-20 22:31:00,
2013-02-20 16:36:00,15.9,-0.3,30.44,North,3,4.0,6.0,48,0.00,,CLR,0.00,VWS V14.01,2013-02-20 22:36:00,
2013-02-20 16:41:00,15.6,-0.6,30.44,NNE,12,2.0,6.0,48,0.00,,CLR,0.00,VWS V14.01,2013-02-20 22:41:00,
2013-02-20 16:45:00,15.4,-0.8,30.44,North,10,1.0,6.0,48,0.00,,,0.00,VWS V15.00,2013-02-20 22:45:00,
2013-02-20 16:46:00,15.4,-0.8,30.44,North,10,3.0,6.0,48,0.00,,CLR,0.00,VWS V14.01,2013-02-20 22:46:00,
2013-02-20 16:51:00,15.2,-1.0,30.44,North,10,2.0,2.0,48,0.00,,CLR,0.00,VWS V14.01,2013-02-20 22:51:00,
2013-02-20 16:56:00,14.9,-0.4,30.44,North,10,0.0,3.0,50,0.00,,CLR,0.00,VWS V14.01,2013-02-20 22:56:00,
2013-02-20 17:00:00,14.4,-0.4,30.44,North,9,0.0,3.0,51,0.00,,,0.00,VWS V15.00,2013-02-20 23:00:00,
2013-02-20 17:01:00,14.6,-0.2,30.44,North,9,0.0,3.0,51,0.00,,CLR,0.00,VWS V14.01,2013-02-20 23:01:00,
2013-02-20 17:06:00,14.3,-0.5,30.44,North,9,0.0,0.0,51,0.00,,CLR,0.00,VWS V14.01,2013-02-20 23:06:00,
2013-02-20 17:11:00,14.0,-0.4,30.44,North,9,0.0,0.0,52,0.00,,CLR,0.00,VWS V14.01,2013-02-20 23:11:00,
2013-02-20 17:15:00,13.5,-0.8,30.44,North,9,0.0,0.0,52,0.00,,,0.00,VWS V15.00,2013-02-20 23:15:00,
2013-02-20 17:16:00,13.5,-0.8,30.44,North,9,0.0,0.0,52,0.00,,CLR,0.00,VWS V14.01,2013-02-20 23:16:00,
2013-02-20 17:21:00,13.1,-1.2,30.44,North,9,0.0,0.0,52,0.00,,CLR,0.00,VWS V14.01,2013-02-20 23:21:00,
2013-02-20 17:26:00,12.8,-1.5,30.44,North,9,0.0,0.0,52,0.00,,CLR,0.00,VWS V14.01,2013-02-20 23:26:00,
2013-02-20 17:30:00,12.4,-1.1,30.44,North,9,0.0,0.0,54,0.00,,,0.00,VWS V15.00,2013-02-20 23:30:00,
2013-02-20 17:31:00,12.4,-1.1,30.44,North,9,0.0,0.0,54,0.00,,CLR,0.00,VWS V14.01,2013-02-20 23:31:00,
2013-02-20 17:36:00,11.9,-1.5,30.44,North,9,0.0,0.0,54,0.00,,CLR,0.00,VWS V14.01,2013-02-20 23:36:00,
2013-02-20 17:41:00,11.6,-1.8,30.44,North,10,0.0,2.0,54,0.00,,CLR,0.00,VWS V14.01,2013-02-20 23:41:00,
2013-02-20 17:45:00,11.1,-2.3,30.43,North,10,0.0,2.0,54,0.00,,,0.00,VWS V15.00,2013-02-20 23:45:00,
2013-02-20 17:46:00,11.1,-2.3,30.43,North,10,0.0,2.0,54,0.00,,CLR,0.00,VWS V14.01,2013-02-20 23:46:00,
2013-02-20 17:51:00,10.9,-2.1,30.43,North,10,0.0,0.0,55,0.00,,CLR,0.00,VWS V14.01,2013-02-20 23:51:00,
2013-02-20 17:56:00,10.9,-2.1,30.43,North,10,0.0,0.0,55,0.00,,CLR,0.00,VWS V14.01,2013-02-20 23:56:00,
2013-02-20 18:00:00,10.7,-1.9,30.43,North,10,0.0,0.0,56,0.00,,,0.00,VWS V15.00,2013-02-21 00:00:00,
2013-02-20 18:01:00,10.7,-1.9,30.43,North,10,0.0,0.0,56,0.00,,CLR,0.00,VWS V14.01,2013-02-21 00:01:00,
2013-02-20 18:06:00,10.7,-1.9,30.43,North,10,0.0,0.0,56,0.00,,CLR,0.00,VWS V14.01,2013-02-21 00:06:00,
2013-02-20 18:11:00,10.7,-1.2,30.43,North,10,0.0,0.0,58,0.00,,CLR,0.00,VWS V14.01,2013-02-21 00:11:00,
2013-02-20 18:15:00,10.5,-1.7,30.43,North,10,0.0,0.0,57,0.00,,,0.00,VWS V15.00,2013-02-21 00:15:00,
2013-02-20 18:16:00,10.5,-1.7,30.43,North,10,0.0,0.0,57,0.00,,CLR,0.00,VWS V14.01,2013-02-21 00:16:00,
2013-02-20 18:22:00,10.5,-1.7,30.43,North,10,0.0,0.0,57,0.00,,CLR,0.00,VWS V14.01,2013-02-21 00:22:00,
2013-02-20 18:27:00,10.4,-1.4,30.43,North,10,0.0,0.0,58,0.00,,CLR,0.00,VWS V14.01,2013-02-21 00:27:00,
2013-02-20 18:30:00,10.4,-1.4,30.43,North,10,0.0,0.0,58,0.00,,,0.00,VWS V15.00,2013-02-21 00:30:00,
2013-02-20 18:32:00,10.4,-1.4,30.43,North,10,0.0,0.0,58,0.00,,CLR,0.00,VWS V14.01,2013-02-21 00:32:00,
2013-02-20 18:37:00,10.5,-1.0,30.43,North,10,0.0,0.0,59,0.00,,CLR,0.00,VWS V14.01,2013-02-21 00:37:00,
2013-02-20 18:42:00,10.4,-1.4,30.43,North,10,0.0,0.0,58,0.00,,CLR,0.00,VWS V14.01,2013-02-21 00:42:00,
2013-02-20 18:45:00,10.2,-1.6,30.43,North,10,0.0,0.0,58,0.00,,,0.00,VWS V15.00,2013-02-21 00:45:00,
2013-02-20 18:47:00,10.2,-1.6,30.43,North,10,0.0,0.0,58,0.00,,CLR,0.00,VWS V14.01,2013-02-21 00:47:00,
2013-02-20 18:52:00,10.4,-1.4,30.43,North,10,0.0,0.0,58,0.00,,CLR,0.00,VWS V14.01,2013-02-21 00:52:00,
2013-02-20 18:57:00,10.4,-0.7,30.43,North,10,0.0,0.0,60,0.00,,CLR,0.00,VWS V14.01,2013-02-21 00:57:00,
2013-02-20 19:00:00,10.2,-1.3,30.43,North,11,3.0,3.0,59,0.00,,,0.00,VWS V15.00,2013-02-21 01:00:00,
2013-02-20 19:02:00,10.2,-1.3,30.43,North,11,3.0,3.0,59,0.00,,CLR,0.00,VWS V14.01,2013-02-21 01:02:00,
2013-02-20 19:07:00,10.4,-1.1,30.43,NNE,14,3.0,4.0,59,0.00,,CLR,0.00,VWS V14.01,2013-02-21 01:07:00,
2013-02-20 19:12:00,11.1,-0.8,30.43,NNE,21,2.0,4.0,58,0.00,,CLR,0.00,VWS V14.01,2013-02-21 01:12:00,
2013-02-20 19:15:00,11.2,-0.7,30.42,NNE,25,3.0,4.0,58,0.00,,,0.00,VWS V15.00,2013-02-21 01:15:00,
2013-02-20 19:17:00,11.2,-0.7,30.42,NNE,25,1.0,3.0,58,0.00,,CLR,0.00,VWS V14.01,2013-02-21 01:17:00,
2013-02-20 19:22:00,11.4,-0.9,30.42,NNE,26,0.0,3.0,57,0.00,,CLR,0.00,VWS V14.01,2013-02-21 01:22:00,
2013-02-20 19:27:00,11.6,-0.7,30.42,NNE,26,1.0,3.0,57,0.00,,CLR,0.00,VWS V14.01,2013-02-21 01:27:00,
2013-02-20 19:30:00,11.4,-0.5,30.41,NNE,27,1.0,3.0,58,0.00,,,0.00,VWS V15.00,2013-02-21 01:30:00,
2013-02-20 19:32:00,11.4,-0.5,30.41,NNE,27,2.0,2.0,58,0.00,,CLR,0.00,VWS V14.01,2013-02-21 01:32:00,
2013-02-20 19:37:00,11.4,-0.9,30.41,NNE,33,2.0,4.0,57,0.00,,CLR,0.00,VWS V14.01,2013-02-21 01:37:00,
2013-02-20 19:42:00,11.2,-0.7,30.41,NE,40,2.0,4.0,58,0.00,,CLR,0.00,VWS V14.01,2013-02-21 01:42:00,
2013-02-20 19:45:00,11.2,-0.7,30.41,NE,42,2.0,4.0,58,0.00,,,0.00,VWS V15.00,2013-02-21 01:45:00,
2013-02-20 19:47:00,11.2,-0.7,30.41,NE,42,3.0,3.0,58,0.00,,CLR,0.00,VWS V14.01,2013-02-21 01:47:00,
2013-02-20 19:52:00,11.1,-1.1,30.41,NE,43,3.0,4.0,57,0.00,,CLR,0.00,VWS V14.01,2013-02-21 01:52:00,
2013-02-20 19:57:00,10.9,-1.0,30.41,NE,45,3.0,4.0,58,0.00,,CLR,0.00,VWS V14.01,2013-02-21 01:57:00,
2013-02-20 20:00:00,10.9,-1.0,30.40,NE,45,2.0,4.0,58,0.00,,,0.00,VWS V15.00,2013-02-21 02:00:00,
2013-02-20 20:02:00,10.9,-1.3,30.40,NE,45,3.0,4.0,57,0.00,,CLR,0.00,VWS V14.01,2013-02-21 02:02:00,
2013-02-20 20:07:00,10.7,-1.2,30.40,NE,45,3.0,5.0,58,0.00,,CLR,0.00,VWS V14.01,2013-02-21 02:07:00,
2013-02-20 20:12:00,10.4,-1.4,30.40,NE,45,4.0,5.0,58,0.00,,CLR,0.00,VWS V14.01,2013-02-21 02:12:00,
2013-02-20 20:15:00,10.4,-1.4,30.40,NE,45,3.0,5.0,58,0.00,,,0.00,VWS V15.00,2013-02-21 02:15:00,
2013-02-20 20:17:00,10.4,-1.4,30.40,NE,45,3.0,3.0,58,0.00,,CLR,0.00,VWS V14.01,2013-02-21 02:17:00,
2013-02-20 20:22:00,10.0,-1.8,30.40,NE,45,2.0,4.0,58,0.00,,CLR,0.00,VWS V14.01,2013-02-21 02:22:00,
2013-02-20 20:27:00,9.7,-1.7,30.40,NE,37,2.0,6.0,59,0.00,,CLR,0.00,VWS V14.01,2013-02-21 02:27:00,
2013-02-20 20:30:00,9.5,-1.2,30.40,NE,37,3.0,6.0,61,0.00,,,0.00,VWS V15.00,2013-02-21 02:30:00,
2013-02-20 20:32:00,9.5,-1.2,30.40,NE,37,2.0,3.0,61,0.00,,CLR,0.00,VWS V14.01,2013-02-21 02:32:00,
2013-02-20 20:37:00,9.3,-1.1,30.40,NE,37,3.0,4.0,62,0.00,,CLR,0.00,VWS V14.01,2013-02-21 02:37:00,
2013-02-20 20:42:00,9.2,-1.5,30.40,NE,35,2.0,4.0,61,0.00,,CLR,0.00,VWS V14.01,2013-02-21 02:42:00,
2013-02-20 20:45:00,9.0,-1.4,30.41,NE,35,2.0,4.0,62,0.00,,,0.00,VWS V15.00,2013-02-21 02:45:00,
2013-02-20 20:47:00,9.0,-1.7,30.41,NE,35,3.0,4.0,61,0.00,,CLR,0.00,VWS V14.01,2013-02-21 02:47:00,
2013-02-20 20:53:00,9.0,-1.7,30.41,NE,35,4.0,5.0,61,0.00,,CLR,0.00,VWS V14.01,2013-02-21 02:53:00,
2013-02-20 20:58:00,9.2,-1.5,30.41,NE,35,3.0,5.0,61,0.00,,CLR,0.00,VWS V14.01,2013-02-21 02:58:00,
2013-02-20 21:00:00,9.5,-1.2,30.40,NE,35,4.0,5.0,61,0.00,,,0.00,VWS V15.00,2013-02-21 03:00:00,
2013-02-20 21:03:00,9.7,-1.0,30.40,NE,35,3.0,4.0,61,0.00,,CLR,0.00,VWS V14.01,2013-02-21 03:03:00,
2013-02-20 21:08:00,10.0,-1.1,30.40,NE,35,2.0,5.0,60,0.00,,CLR,0.00,VWS V14.01,2013-02-21 03:08:00,
2013-02-20 21:13:00,10.2,-1.3,30.40,NE,35,1.0,5.0,59,0.00,,CLR,0.00,VWS V14.01,2013-02-21 03:13:00,
2013-02-20 21:15:00,10.2,-1.3,30.40,NE,34,0.0,5.0,59,0.00,,,0.00,VWS V15.00,2013-02-21 03:15:00,
2013-02-20 21:18:00,10.2,-0.9,30.40,NE,35,1.0,2.0,60,0.00,,CLR,0.00,VWS V14.01,2013-02-21 03:18:00,
2013-02-20 21:23:00,9.9,-1.2,30.40,NE,34,2.0,3.0,60,0.00,,CLR,0.00,VWS V14.01,2013-02-21 03:23:00,
2013-02-20 21:28:00,10.0,-1.1,30.40,NE,34,2.0,3.0,60,0.00,,CLR,0.00,VWS V14.01,2013-02-21 03:28:00,
2013-02-20 21:30:00,10.0,-1.5,30.40,NE,35,2.0,4.0,59,0.00,,,0.00,VWS V15.00,2013-02-21 03:30:00,
2013-02-20 21:33:00,10.0,-1.1,30.40,NE,35,2.0,3.0,60,0.00,,CLR,0.00,VWS V14.01,2013-02-21 03:33:00,
2013-02-20 21:38:00,9.7,-1.4,30.40,NE,35,3.0,3.0,60,0.00,,CLR,0.00,VWS V14.01,2013-02-21 03:38:00,
2013-02-20 21:43:00,9.3,-1.4,30.40,NE,35,1.0,3.0,61,0.00,,CLR,0.00,VWS V14.01,2013-02-21 03:43:00,
2013-02-20 21:45:00,9.2,-1.5,30.40,NE,35,1.0,3.0,61,0.00,,,0.00,VWS V15.00,2013-02-21 03:45:00,
2013-02-20 21:48:00,9.2,-1.5,30.40,NE,35,0.0,1.0,61,0.00,,CLR,0.00,VWS V14.01,2013-02-21 03:48:00,
2013-02-20 21:53:00,8.8,-1.5,30.40,NE,35,0.0,1.0,62,0.00,,CLR,0.00,VWS V14.01,2013-02-21 03:53:00,
2013-02-20 21:58:00,8.6,-1.7,30.40,NE,35,0.0,1.0,62,0.00,,CLR,0.00,VWS V14.01,2013-02-21 03:58:00,
2013-02-20 22:00:00,8.8,-1.5,30.40,NE,35,0.0,1.0,62,0.00,,,0.00,VWS V15.00,2013-02-21 04:00:00,
2013-02-20 22:03:00,8.8,-1.5,30.40,NE,35,0.0,0.0,62,0.00,,CLR,0.00,VWS V14.01,2013-02-21 04:03:00,
2013-02-20 22:08:00,8.6,-1.7,30.40,NE,35,0.0,0.0,62,0.00,,CLR,0.00,VWS V14.01,2013-02-21 04:08:00,
2013-02-20 22:13:00,8.6,-1.4,30.40,NE,35,0.0,0.0,63,0.00,,CLR,0.00,VWS V14.01,2013-02-21 04:13:00,
2013-02-20 22:15:00,8.8,-1.2,30.40,NE,35,0.0,0.0,63,0.00,,,0.00,VWS V15.00,2013-02-21 04:15:00,
2013-02-20 22:18:00,8.8,-1.2,30.40,NE,35,0.0,0.0,63,0.00,,CLR,0.00,VWS V14.01,2013-02-21 04:18:00,
2013-02-20 22:23:00,8.8,-1.5,30.40,NE,35,0.0,0.0,62,0.00,,CLR,0.00,VWS V14.01,2013-02-21 04:23:00,
2013-02-20 22:28:00,8.6,-1.7,30.40,NE,35,0.0,0.0,62,0.00,,CLR,0.00,VWS V14.01,2013-02-21 04:28:00,
2013-02-20 22:30:00,8.4,-1.9,30.41,NE,35,0.0,0.0,62,0.00,,,0.00,VWS V15.00,2013-02-21 04:30:00,
2013-02-20 22:33:00,8.3,-2.0,30.41,NE,35,0.0,0.0,62,0.00,,CLR,0.00,VWS V14.01,2013-02-21 04:33:00,
2013-02-20 22:38:00,8.1,-1.5,30.41,NE,35,0.0,0.0,64,0.00,,CLR,0.00,VWS V14.01,2013-02-21 04:38:00,
2013-02-20 22:44:00,7.6,-2.0,30.41,NE,35,0.0,0.0,64,0.00,,CLR,0.00,VWS V14.01,2013-02-21 04:44:00,
2013-02-20 22:45:00,7.4,-1.9,30.42,NE,35,0.0,0.0,65,0.00,,,0.00,VWS V15.00,2013-02-21 04:45:00,
2013-02-20 22:49:00,7.4,-1.9,30.42,NE,35,0.0,0.0,65,0.00,,CLR,0.00,VWS V14.01,2013-02-21 04:49:00,
2013-02-20 22:54:00,7.2,-2.1,30.42,NE,35,0.0,0.0,65,0.00,,CLR,0.00,VWS V14.01,2013-02-21 04:54:00,
2013-02-20 22:59:00,6.9,-2.0,30.42,NE,35,0.0,0.0,66,0.00,,CLR,0.00,VWS V14.01,2013-02-21 04:59:00,
2013-02-20 23:00:00,6.9,-2.0,30.42,NE,35,0.0,0.0,66,0.00,,CLR,0.00,VWS V14.01,2013-02-21 05:00:00,
2013-02-20 23:02:00,6.7,-2.2,30.42,NE,35,0.0,0.0,66,0.00,,CLR,0.00,VWS V14.01,2013-02-21 05:02:00,
2013-02-20 23:03:00,6.7,-2.2,30.42,NE,35,0.0,0.0,66,0.00,,CLR,0.00,VWS V14.01,2013-02-21 05:03:00,
2013-02-20 23:07:00,6.7,-1.9,30.42,NE,35,0.0,0.0,67,0.00,,CLR,0.00,VWS V14.01,2013-02-21 05:07:00,
2013-02-20 23:12:00,6.7,-1.9,30.42,NE,35,0.0,0.0,67,0.00,,CLR,0.00,VWS V14.01,2013-02-21 05:12:00,
2013-02-20 23:15:00,6.5,-2.4,30.43,NE,35,0.0,0.0,66,0.00,,,0.00,VWS V15.00,2013-02-21 05:15:00,
2013-02-20 23:17:00,6.5,-2.4,30.43,NE,35,0.0,0.0,66,0.00,,CLR,0.00,VWS V14.01,2013-02-21 05:17:00,
2013-02-20 23:22:00,5.0,-4.2,30.43,NE,35,0.0,0.0,65,0.00,,CLR,0.00,VWS V14.01,2013-02-21 05:22:00,
2013-02-20 23:27:00,3.9,-4.6,30.43,NE,35,0.0,0.0,67,0.00,,CLR,0.00,VWS V14.01,2013-02-21 05:27:00,
2013-02-20 23:30:00,3.9,-4.0,30.43,NE,35,0.0,0.0,69,0.00,,,0.00,VWS V15.00,2013-02-21 05:30:00,
2013-02-20 23:32:00,3.9,-4.0,30.43,NE,35,0.0,0.0,69,0.00,,CLR,0.00,VWS V14.01,2013-02-21 05:32:00,
2013-02-20 23:37:00,3.7,-3.9,30.43,NE,35,0.0,0.0,70,0.00,,CLR,0.00,VWS V14.01,2013-02-21 05:37:00,
2013-02-20 23:42:00,3.5,-3.8,30.43,NE,35,0.0,0.0,71,0.00,,CLR,0.00,VWS V14.01,2013-02-21 05:42:00,
2013-02-20 23:45:00,3.7,-3.3,30.43,NE,35,0.0,0.0,72,0.00,,,0.00,VWS V15.00,2013-02-21 05:45:00,
2013-02-20 23:47:00,3.7,-3.3,30.43,NE,35,0.0,0.0,72,0.00,,CLR,0.00,VWS V14.01,2013-02-21 05:47:00,
2013-02-20 23:52:00,4.1,-2.9,30.43,NE,35,0.0,0.0,72,0.00,,CLR,0.00,VWS V14.01,2013-02-21 05:52:00,
2013-02-20 23:58:00,4.3,-2.7,30.43,NE,35,0.0,0.0,72,0.00,,CLR,0.00,VWS V14.01,2013-02-21 05:58:00,